Weather History for KC09 - July, 2013

Change the Weather History Date:

Tuesday, July 9, 2013

  Actual Average (KLOT) Record (KLOT)
Temperature  
Mean Temperature 80 °F 74 °F  
Max Temperature 86 °F 84 °F 92 °F (2007)
Min Temperature 73 °F 64 °F 56 °F (1997)
Degree Days  
Heating Degree Days 0 0  
Month to date heating degree days 0  
Since 1 June heating degree days 33  
Since 1 July heating degree days 0  
Cooling Degree Days 14 9  
Month to date cooling degree days 81  
Year to date cooling degree days 319  
Since 1 June cooling degree days 261  
Growing Degree Days 30 (Base 50)    
Moisture  
Dew Point 74 °F    
Average Humidity 85    
Maximum Humidity 99    
Minimum Humidity 68    
Precipitation  
Precipitation 0.00 in 0.13 in 1.71 in (2002)
Month to date precipitation 1.22  
Year to date precipitation 20.26  
Sea Level Pressure  
Sea Level Pressure 29.96 in    
Wind  
Wind Speed 4 mph (SW)    
Max Wind Speed 18 mph    
Max Gust Speed 29 mph    
Visibility 9 miles    
Events Rain    
T = Trace of Precipitation, MM = Missing Value Source: NWS Daily Summary

Daily Weather History Graph

Daily Weather History Graph

Search for Another Location

Airport or City:

Trip Planner

Search our weather history database for the weather conditions in past years. The results will help you decide how hot, cold, wet, or windy it might be!

Date:

Astronomy

Jul. 09, 2013 Rise Set
Actual Time 5:28 AM CDT 8:28 PM CDT
Civil Twilight 4:55 AM CDT 9:01 PM CDT
Nautical Twilight 4:13 AM CDT 9:44 PM CDT
Astronomical Twilight 3:23 AM CDT 10:33 PM CDT
Moon 6:54 AM CDT (7/9) 9:04 PM CDT (7/9)
Length of Visible Light 16h 06m
Length of Day
14h 59m
New Moon, 2% of the Moon is Illuminated
Jul 9
New Moon
Jul 15
First Quarter
Jul 22
Full
Jul 29
Last Quarter
Aug 6
New

Hourly Weather History & Observations

Time (CDT) Temp. Heat Index Dew Point Humidity Pressure Visibility Wind Dir Wind Speed Gust Speed Precip Events Conditions
12:15 AM 77.0 °F - 73.0 °F 88% 30.01 in 10.0 mi WSW 3.5 mph - N/A   Mostly Cloudy
12:35 AM 77.2 °F - 73.0 °F 87% 30.01 in 10.0 mi WSW 3.5 mph - N/A   Mostly Cloudy
12:55 AM 76.8 °F - 72.9 °F 88% 30.00 in 10.0 mi Calm Calm - N/A   Scattered Clouds
1:15 AM 75.6 °F - 73.4 °F 93% 29.99 in 7.0 mi SW 4.6 mph - N/A   Scattered Clouds
1:35 AM 75.7 °F - 73.6 °F 93% 30.00 in 7.0 mi WSW 5.8 mph - N/A   Clear
1:55 AM 75.2 °F - 73.4 °F 94% 30.00 in 7.0 mi SW 5.8 mph - N/A   Clear
2:15 AM 75.2 °F - 73.4 °F 94% 30.00 in 7.0 mi SW 4.6 mph - N/A   Clear
2:35 AM 74.5 °F - 73.2 °F 96% 30.00 in 5.0 mi SW 3.5 mph - N/A   Clear
2:55 AM 74.5 °F - 73.4 °F 96% 30.00 in 7.0 mi Calm Calm - N/A   Scattered Clouds
3:15 AM 74.5 °F - 73.0 °F 95% 29.99 in 7.0 mi Calm Calm - N/A   Mostly Cloudy
3:35 AM 74.7 °F - 73.4 °F 96% 30.00 in 7.0 mi Calm Calm - N/A   Scattered Clouds
3:55 AM 74.5 °F - 73.4 °F 96% 30.00 in 5.0 mi Calm Calm - N/A   Scattered Clouds
4:15 AM 73.8 °F - 73.2 °F 98% 29.99 in 3.0 mi Calm Calm - N/A   Scattered Clouds
4:35 AM 73.9 °F - 73.4 °F 98% 30.00 in 4.0 mi Calm Calm - N/A   Mostly Cloudy
4:55 AM 74.3 °F - 73.6 °F 98% 29.99 in 5.0 mi Calm Calm - N/A   Overcast
5:15 AM 74.1 °F - 73.6 °F 98% 29.99 in 4.0 mi Calm Calm - N/A   Mostly Cloudy
5:35 AM 74.3 °F - 73.8 °F 98% 29.99 in 2.5 mi Calm Calm - N/A   Scattered Clouds
5:55 AM 74.1 °F - 73.8 °F 99% 29.99 in 2.5 mi Calm Calm - N/A   Clear
6:15 AM 74.8 °F - 74.3 °F 98% 29.99 in 3.0 mi Calm Calm - N/A   Clear
6:35 AM 75.6 °F - 75.2 °F 99% 29.99 in 3.0 mi Calm Calm - N/A   Clear
6:55 AM 76.3 °F - 75.6 °F 98% 29.99 in 4.0 mi Calm Calm - N/A   Clear
7:15 AM 77.0 °F - 75.6 °F 95% 29.99 in 7.0 mi SSW 4.6 mph - N/A   Clear
7:35 AM 77.7 °F - 75.7 °F 94% 30.00 in 7.0 mi WSW 3.5 mph - N/A   Scattered Clouds
7:55 AM 77.9 °F - 75.7 °F 93% 29.99 in 7.0 mi SSW 3.5 mph - N/A   Scattered Clouds
8:15 AM 78.3 °F - 75.7 °F 92% 29.99 in 10.0 mi Calm Calm - N/A   Clear
8:35 AM 78.8 °F - 75.9 °F 91% 29.99 in 10.0 mi SW 3.5 mph - N/A   Scattered Clouds
8:55 AM 79.7 °F - 76.1 °F 89% 29.99 in 10.0 mi SSW 4.6 mph - N/A   Clear
9:15 AM 80.2 °F 85.8 °F 75.9 °F 87% 29.99 in 10.0 mi SSW 6.9 mph - N/A   Clear
9:35 AM 81.3 °F 88.5 °F 76.6 °F 86% 29.98 in 10.0 mi SSW 8.1 mph - N/A   Clear
9:55 AM 82.4 °F 90.3 °F 76.5 °F 82% 29.99 in 10.0 mi SW 8.1 mph - N/A   Clear
10:15 AM 82.9 °F 89.9 °F 74.7 °F 76% 29.99 in 10.0 mi WSW 9.2 mph - N/A   Scattered Clouds
10:35 AM 83.3 °F 90.8 °F 75.2 °F 76% 30.00 in 10.0 mi WSW 12.7 mph - N/A   Scattered Clouds
10:55 AM 82.4 °F 89.0 °F 74.7 °F 77% 30.01 in 10.0 mi WSW 17.3 mph 24.2 mph N/A   Mostly Cloudy
11:15 AM 79.7 °F - 69.8 °F 72% 30.01 in 10.0 mi West 18.4 mph 28.8 mph N/A Rain Light Rain
11:35 AM 79.9 °F - 70.0 °F 72% 30.01 in 10.0 mi West 10.4 mph - N/A   Scattered Clouds
11:55 AM 80.6 °F 83.9 °F 69.8 °F 70% 30.01 in 10.0 mi West 11.5 mph 18.4 mph N/A   Clear
12:15 PM 77.2 °F - 70.3 °F 79% 29.99 in 10.0 mi West 8.1 mph - N/A Rain Light Rain
12:35 PM 76.1 °F - 70.0 °F 81% 29.98 in 10.0 mi WSW 3.5 mph - N/A Rain Light Rain
12:55 PM 77.4 °F - 71.1 °F 81% 29.97 in 10.0 mi SW 4.6 mph - N/A   Clear
1:15 PM 78.3 °F - 71.6 °F 80% 29.98 in 10.0 mi SSW 6.9 mph - N/A   Clear
1:35 PM 78.8 °F - 71.2 °F 78% 29.97 in 10.0 mi SW 5.8 mph - N/A   Scattered Clouds
1:55 PM 78.4 °F - 70.9 °F 77% 29.97 in 10.0 mi SW 4.6 mph - N/A   Scattered Clouds
2:15 PM 79.7 °F - 71.4 °F 76% 29.98 in 10.0 mi West 8.1 mph - N/A   Scattered Clouds
2:35 PM 79.7 °F - 72.0 °F 77% 29.98 in 10.0 mi West 6.9 mph - N/A   Scattered Clouds
2:55 PM 79.7 °F - 72.0 °F 77% 29.96 in 10.0 mi Calm Calm - N/A   Clear
3:15 PM 80.8 °F 85.2 °F 72.7 °F 76% 29.95 in 10.0 mi Calm Calm - N/A   Clear
3:35 PM 82.2 °F 87.8 °F 73.0 °F 74% 29.94 in 10.0 mi Calm Calm - N/A   Clear
3:55 PM 83.1 °F 89.5 °F 73.6 °F 73% 29.92 in 10.0 mi South 4.6 mph - N/A   Clear
4:15 PM 82.6 °F 88.8 °F 73.9 °F 75% 29.93 in 10.0 mi SSW 3.5 mph - N/A   Clear
4:35 PM 83.8 °F 91.1 °F 74.5 °F 73% 29.91 in 10.0 mi SSE 5.8 mph - N/A   Scattered Clouds
4:55 PM 84.9 °F 92.9 °F 74.7 °F 71% 29.91 in 10.0 mi South 6.9 mph - N/A   Clear
5:15 PM 86.2 °F 94.6 °F 74.7 °F 68% 29.91 in 10.0 mi South 9.2 mph - N/A   Clear
5:35 PM 85.5 °F 94.6 °F 75.4 °F 72% 29.90 in 10.0 mi SSW 9.2 mph - N/A   Clear
5:55 PM 84.4 °F 92.7 °F 75.4 °F 74% 29.89 in 10.0 mi SSW 8.1 mph - N/A   Clear
6:15 PM 86.0 °F 95.5 °F 75.7 °F 71% 29.89 in 10.0 mi SSW 8.1 mph - N/A   Clear
6:35 PM 86.0 °F 96.4 °F 76.3 °F 73% 29.89 in 10.0 mi SSW 8.1 mph - N/A   Clear
6:55 PM 86.0 °F 95.1 °F 75.4 °F 70% 29.89 in 10.0 mi SW 10.4 mph - N/A   Clear
7:15 PM 85.3 °F 93.4 °F 74.7 °F 70% 29.89 in 10.0 mi SW 12.7 mph 17.3 mph N/A   Clear
7:35 PM 84.6 °F 91.7 °F 73.8 °F 70% 29.89 in 10.0 mi SW 8.1 mph - N/A   Clear
7:55 PM 83.3 °F 89.9 °F 73.9 °F 73% 29.89 in 10.0 mi SW 5.8 mph - N/A   Clear
8:15 PM 81.7 °F 87.6 °F 74.3 °F 78% 29.89 in 10.0 mi SW 4.6 mph - N/A   Clear
8:35 PM 80.6 °F 85.7 °F 74.3 °F 81% 29.89 in 10.0 mi SSW 4.6 mph - N/A   Clear
8:55 PM 80.1 °F 85.2 °F 75.4 °F 86% 29.89 in 10.0 mi SW 4.6 mph - N/A   Clear
9:15 PM 79.3 °F - 77.0 °F 93% 29.89 in 10.0 mi SSW 4.6 mph - N/A   Clear
9:35 PM 79.5 °F - 77.0 °F 92% 29.90 in 10.0 mi SSW 4.6 mph - N/A   Clear
9:55 PM 78.8 °F - 76.6 °F 93% 29.90 in 10.0 mi SSW 4.6 mph - N/A   Clear
10:15 PM 78.8 °F - 77.0 °F 94% 29.90 in 10.0 mi SW 3.5 mph - N/A   Clear
10:35 PM 78.8 °F - 77.0 °F 94% 29.90 in 10.0 mi SW 3.5 mph - N/A   Mostly Cloudy
10:55 PM 78.6 °F - 76.8 °F 94% 29.90 in 10.0 mi SW 4.6 mph - N/A   Mostly Cloudy
11:15 PM 77.9 °F - 76.3 °F 95% 29.90 in 10.0 mi SSW 3.5 mph - N/A   Scattered Clouds
11:35 PM 77.9 °F - 76.3 °F 95% 29.90 in 10.0 mi SW 5.8 mph - N/A   Clear
11:55 PM 77.4 °F - 76.1 °F 96% 29.90 in 10.0 mi SSW 4.6 mph - N/A   Scattered Clouds